EW2997 Weather Reports


time (UTC)temp
F
wind
direction
speed
knots
gust
knots
rain 1hr
in
rain 24hr
in
rain mn
in
humidity
%
barometer
mb
20260506042229 65 120 1.7 1.7 0.00 0.00 0.00 55 1012.5
20260506035229 67 168 0.0 0.0 0.00 0.00 0.00 52 1012.1
20260506032229 67 148 0.0 0.0 0.00 0.00 0.00 51 1012.1
20260506025229 64 119 0.0 0.0 0.00 0.00 0.00 56 1012.1
20260506022228 61 162 0.0 0.0 0.00 0.00 0.00 65 1012.5
20260506015224 61 114 0.0 0.0 0.00 0.00 0.00 63 1012.1
20260506012222 62 174 0.0 0.0 0.00 0.00 0.00 61 1012.1
20260506005222 65 126 1.7 1.7 0.00 0.00 0.00 51 1011.4
20260506002217 66 138 2.6 2.6 0.00 0.00 0.00 52 1011.4
20260505235212 71 183 0.0 0.0 0.00 0.00 0.00 47 1011.4
20260505232212 76 256 3.5 3.5 0.00 0.00 0.00 33 1011.1
20260505225212 78 191 1.7 1.7 0.00 0.00 0.00 34 1010.7
20260505222209 78 293 2.6 2.6 0.00 0.00 0.00 39 1011.1
20260505215205 79 217 4.3 5.2 0.00 0.00 0.00 34 1010.7
20260505212205 80 258 3.5 3.5 0.00 0.00 0.00 31 1010.7
20260505205200 81 203 5.2 6.1 0.00 0.00 0.00 31 1010.7
20260505202158 81 252 3.5 3.5 0.00 0.00 0.00 31 1011.1
20260505195157 81 213 5.2 5.2 0.00 0.00 0.00 31 1011.1
20260505192157 80 258 5.2 5.2 0.00 0.00 0.00 35 1011.4
20260505185154 79 216 7.8 8.7 0.00 0.00 0.00 35 1011.7
20260505182153 80 240 4.3 4.3 0.00 0.00 0.00 40 1012.1
20260505175150 78 258 3.5 3.5 0.00 0.00 0.00 40 1012.5
20260505172149 78 276 6.1 7.0 0.00 0.00 0.00 39 1012.5
20260505165148 76 234 4.3 4.3 0.00 0.00 0.00 43 1013.2
20260505162143 76 262 5.2 5.2 0.00 0.00 0.00 44 1013.2
20260505152138 74 180 5.2 6.1 0.00 0.00 0.00 48 1013.5
20260505122120 65 210 4.3 4.3 0.00 0.00 0.00 64 1014.2
20260505115115 63 180 0.9 0.9 0.00 0.00 0.00 67 1014.5
20260505112114 57 228 0.0 0.0 0.00 0.00 0.00 80 1014.5
20260505102113 54 165 0.0 0.0 0.00 0.00 0.00 84 1013.9
20260505095111 53 210 0.0 0.0 0.00 0.00 0.00 85 1013.9
20260505092111 54 130 0.0 0.0 0.00 0.00 0.00 82 1013.2
20260505085108 55 156 0.0 0.0 0.00 0.00 0.00 82 1013.2
20260505082108 55 136 1.7 1.7 0.00 0.00 0.00 78 1013.2
20260505075104 54 126 1.7 1.7 0.00 0.00 0.00 83 1012.9
20260505072103 55 156 0.0 0.0 0.00 0.00 0.00 79 1012.9
20260505065100 55 164 1.7 1.7 0.00 0.00 0.00 80 1012.5
20260505062100 55 144 1.7 1.7 0.00 0.00 0.00 82 1012.9
20260505055059 58 141 1.7 1.7 0.00 0.00 0.00 77 1012.9